timestamp,wind_dir_avg,wind_spd_max_dir,wind_spd_avg,wind_spd_gust,battery_voltage,lat,long
2017-09-13 00:00:00+00:00,18.0,16.0,4.15,4.85,12.7,47.59359,-54.27349
2017-09-13 00:10:00+00:00,26.0,26.0,4.79,5.27,12.6,47.59359,-54.27349
2017-09-13 00:20:00+00:00,16.0,15.0,5.25,5.67,12.7,47.59359,-54.27349
2017-09-13 00:30:00+00:00,12.0,11.0,5.25,5.66,12.7,47.59359,-54.27349
2017-09-13 00:40:00+00:00,18.0,18.0,4.55,5.06,12.7,47.59359,-54.27349
2017-09-13 00:50:00+00:00,17.0,18.0,4.45,4.98,12.7,47.59359,-54.27349
2017-09-13 01:00:00+00:00,31.0,32.0,3.51,3.85,12.7,47.59359,-54.27349
2017-09-13 01:10:00+00:00,37.0,35.0,2.85,3.29,12.6,47.59359,-54.27349
2017-09-13 01:20:00+00:00,45.0,43.0,2.79,3.09,12.7,47.59359,-54.27349
2017-09-13 01:30:00+00:00,40.0,41.0,2.27,2.8,12.7,47.59359,-54.27349
2017-09-13 01:40:00+00:00,47.0,50.0,2.18,2.4,12.7,47.59359,-54.27349
2017-09-13 01:50:00+00:00,30.0,37.0,1.78,1.97,12.7,47.59359,-54.27349
2017-09-13 02:00:00+00:00,51.0,48.0,2.78,3.21,12.6,47.59359,-54.27349
2017-09-13 02:10:00+00:00,114.0,110.0,2.5,3.21,12.6,47.59359,-54.27349
2017-09-13 02:20:00+00:00,57.0,55.0,2.49,3.26,12.7,47.59359,-54.27349
2017-09-13 02:30:00+00:00,29.0,30.0,3.11,3.82,12.7,47.59359,-54.27349
2017-09-13 02:40:00+00:00,22.0,49.0,1.28,1.7,12.7,47.59359,-54.27349
2017-09-13 02:50:00+00:00,44.0,30.0,1.95,2.75,12.7,47.59359,-54.27349
2017-09-13 03:00:00+00:00,7.0,358.0,1.99,2.77,12.6,47.59359,-54.27349
2017-09-13 03:10:00+00:00,3.0,358.0,3.22,3.74,12.6,47.59359,-54.27349
2017-09-13 03:20:00+00:00,0.0,0.0,3.43,4.15,12.6,47.59359,-54.27349
2017-09-13 03:30:00+00:00,11.0,10.0,2.87,3.43,12.6,47.59359,-54.27349
2017-09-13 03:40:00+00:00,14.0,19.0,2.72,3.13,12.7,47.59359,-54.27349
2017-09-13 03:50:00+00:00,9.0,357.0,3.2,3.76,12.7,47.59359,-54.27349
2017-09-13 04:00:00+00:00,357.0,0.0,3.17,3.72,12.6,47.59359,-54.27349
2017-09-13 04:10:00+00:00,339.0,339.0,1.06,1.4,12.6,47.59359,-54.27349
2017-09-13 04:20:00+00:00,337.0,346.0,1.77,2.17,12.6,47.59359,-54.27349
2017-09-13 04:30:00+00:00,16.0,15.0,1.52,1.73,12.6,47.59359,-54.27349
2017-09-13 04:40:00+00:00,352.0,351.0,2.73,3.55,12.7,47.59359,-54.27349
2017-09-13 04:50:00+00:00,335.0,332.0,2.6,3.0,12.7,47.59359,-54.27349
2017-09-13 05:00:00+00:00,336.0,338.0,3.48,3.92,12.6,47.59359,-54.27349
2017-09-13 05:10:00+00:00,338.0,337.0,2.88,3.25,12.6,47.59359,-54.27349
2017-09-13 05:20:00+00:00,336.0,337.0,3.51,4.04,12.6,47.59359,-54.27349
2017-09-13 05:30:00+00:00,350.0,346.0,3.05,3.58,12.6,47.59359,-54.27349
2017-09-13 05:40:00+00:00,351.0,354.0,3.64,4.06,12.6,47.59359,-54.27349
2017-09-13 05:50:00+00:00,358.0,356.0,2.77,3.46,12.6,47.59359,-54.27349
2017-09-13 06:00:00+00:00,2.0,5.0,3.28,3.74,12.6,47.59359,-54.27349
2017-09-13 06:10:00+00:00,19.0,17.0,3.71,4.22,12.6,47.59359,-54.27349
2017-09-13 06:20:00+00:00,12.0,12.0,4.09,4.71,12.6,47.59359,-54.27349
2017-09-13 06:30:00+00:00,22.0,23.0,3.88,4.74,12.6,47.59359,-54.27349
2017-09-13 06:40:00+00:00,36.0,35.0,2.66,3.26,12.6,47.59359,-54.27349
2017-09-13 06:50:00+00:00,29.0,19.0,3.2,3.74,12.6,47.59359,-54.27349
2017-09-13 07:00:00+00:00,18.0,19.0,3.39,3.74,12.6,47.59359,-54.27349
2017-09-13 07:10:00+00:00,351.0,0.0,3.78,4.68,12.6,47.59359,-54.27349
2017-09-13 07:20:00+00:00,355.0,357.0,4.18,4.66,12.6,47.59359,-54.27349
2017-09-13 07:30:00+00:00,351.0,350.0,3.94,4.31,12.6,47.59359,-54.27349
2017-09-13 07:40:00+00:00,4.0,3.0,4.11,4.43,12.6,47.59359,-54.27349
2017-09-13 07:50:00+00:00,19.0,18.0,4.0,4.54,12.6,47.59359,-54.27349
2017-09-13 08:00:00+00:00,20.0,24.0,3.1,3.81,12.6,47.59359,-54.27349
2017-09-13 08:10:00+00:00,16.0,17.0,3.73,4.12,12.6,47.59359,-54.27349
2017-09-13 08:20:00+00:00,14.0,14.0,3.91,4.24,12.6,47.59359,-54.27349
2017-09-13 08:30:00+00:00,3.0,1.0,4.29,4.79,12.6,47.59359,-54.27349
2017-09-13 08:40:00+00:00,1.0,356.0,3.76,4.55,12.6,47.59359,-54.27349
2017-09-13 08:50:00+00:00,357.0,352.0,3.75,4.08,12.6,47.59359,-54.27349
2017-09-13 09:00:00+00:00,5.0,359.0,3.87,4.3,12.6,47.59359,-54.27349
2017-09-13 09:10:00+00:00,2.0,0.0,4.85,5.42,12.6,47.59359,-54.27349
2017-09-13 09:20:00+00:00,348.0,348.0,5.5,6.29,12.6,47.59359,-54.27349
2017-09-13 09:30:00+00:00,354.0,344.0,4.42,5.16,12.6,47.59359,-54.27349
2017-09-13 09:40:00+00:00,356.0,357.0,4.05,4.54,12.6,47.59359,-54.27349
2017-09-13 09:50:00+00:00,17.0,14.0,4.17,5.06,12.6,47.59359,-54.27349
2017-09-13 10:00:00+00:00,18.0,15.0,4.32,5.06,12.6,47.59359,-54.27349
2017-09-13 10:10:00+00:00,19.0,19.0,3.78,4.5,12.6,47.59359,-54.27349
2017-09-13 10:20:00+00:00,26.0,32.0,3.93,4.52,12.7,47.59359,-54.27349
2017-09-13 10:30:00+00:00,20.0,14.0,4.37,5.38,12.9,47.59359,-54.27349
2017-09-13 10:40:00+00:00,23.0,9.0,4.9,5.76,13.3,47.59359,-54.27349
2017-09-13 10:50:00+00:00,45.0,42.0,5.23,5.98,13.4,47.59359,-54.27349
2017-09-13 11:00:00+00:00,42.0,50.0,5.48,6.07,13.4,47.59359,-54.27349
2017-09-13 11:10:00+00:00,50.0,49.0,4.67,5.38,13.3,47.59359,-54.27349
2017-09-13 11:20:00+00:00,40.0,42.0,5.12,5.85,13.4,47.59359,-54.27349
2017-09-13 11:30:00+00:00,53.0,52.0,5.93,6.65,13.5,47.59359,-54.27349
2017-09-13 11:40:00+00:00,39.0,34.0,6.04,7.38,13.6,47.59359,-54.27349
2017-09-13 11:50:00+00:00,36.0,37.0,5.49,6.21,13.7,47.59359,-54.27349
2017-09-13 12:00:00+00:00,37.0,45.0,5.33,6.4,13.7,47.59359,-54.27349
2017-09-13 12:10:00+00:00,51.0,54.0,6.07,6.51,13.6,47.59359,-54.27349
2017-09-13 12:20:00+00:00,47.0,47.0,4.98,5.75,13.8,47.59359,-54.27349
2017-09-13 12:30:00+00:00,49.0,41.0,4.35,4.86,13.8,47.59359,-54.27349
2017-09-13 12:40:00+00:00,61.0,63.0,4.46,4.91,13.9,47.59359,-54.27349
2017-09-13 12:50:00+00:00,59.0,72.0,5.6,7.35,13.9,47.59359,-54.27349
2017-09-13 13:00:00+00:00,67.0,62.0,4.93,5.62,13.8,47.59359,-54.27349
2017-09-13 13:10:00+00:00,47.0,49.0,4.45,4.89,13.9,47.59359,-54.27349
2017-09-13 13:20:00+00:00,52.0,50.0,5.02,5.52,13.8,47.59359,-54.27349
2017-09-13 13:30:00+00:00,48.0,44.0,5.02,5.72,14.2,47.59359,-54.27349
2017-09-13 13:40:00+00:00,33.0,47.0,4.54,5.87,13.7,47.59359,-54.27349
2017-09-13 13:50:00+00:00,16.0,13.0,4.67,5.22,13.7,47.59359,-54.27349
2017-09-13 14:00:00+00:00,14.0,14.0,4.42,4.99,13.6,47.59359,-54.27349
2017-09-13 14:10:00+00:00,37.0,41.0,4.53,5.16,14.0,47.59359,-54.27349
2017-09-13 14:20:00+00:00,18.0,20.0,4.53,5.02,14.2,47.59359,-54.27349
2017-09-13 14:30:00+00:00,31.0,32.0,5.62,6.11,14.2,47.59359,-54.27349
2017-09-13 14:40:00+00:00,52.0,53.0,4.61,4.98,13.8,47.59359,-54.27349
2017-09-13 14:50:00+00:00,75.0,79.0,4.28,4.76,13.9,47.59359,-54.27349
2017-09-13 15:00:00+00:00,81.0,87.0,4.97,5.43,13.7,47.59359,-54.27349
2017-09-13 15:10:00+00:00,78.0,80.0,4.51,4.98,13.8,47.59359,-54.27349
2017-09-13 15:20:00+00:00,80.0,81.0,5.91,7.2,14.1,47.59359,-54.27349
2017-09-13 15:30:00+00:00,69.0,68.0,4.5,4.83,13.7,47.59359,-54.27349
2017-09-13 15:40:00+00:00,69.0,63.0,4.53,5.03,13.8,47.59359,-54.27349
2017-09-13 15:50:00+00:00,73.0,72.0,4.27,4.95,14.1,47.59359,-54.27349
2017-09-13 16:00:00+00:00,59.0,58.0,3.19,3.59,13.9,47.59359,-54.27349
2017-09-13 16:10:00+00:00,59.0,57.0,3.86,4.18,13.7,47.59359,-54.27349
2017-09-13 16:20:00+00:00,71.0,73.0,3.99,4.51,14.2,47.59359,-54.27349
2017-09-13 16:30:00+00:00,72.0,71.0,4.05,4.43,14.3,47.59359,-54.27349
2017-09-13 16:40:00+00:00,76.0,79.0,3.31,3.81,14.2,47.59359,-54.27349
2017-09-13 16:50:00+00:00,62.0,66.0,4.35,4.74,14.2,47.59359,-54.27349
2017-09-13 17:00:00+00:00,63.0,62.0,4.19,4.74,14.1,47.59359,-54.27349
2017-09-13 17:10:00+00:00,69.0,76.0,5.38,6.17,13.9,47.59359,-54.27349
2017-09-13 17:20:00+00:00,57.0,57.0,4.98,5.3,14.2,47.59359,-54.27349
2017-09-13 17:30:00+00:00,52.0,53.0,5.13,5.87,14.2,47.59359,-54.27349
2017-09-13 17:40:00+00:00,64.0,62.0,4.67,5.31,13.9,47.59359,-54.27349
2017-09-13 17:50:00+00:00,37.0,38.0,5.62,6.25,13.7,47.59359,-54.27349
2017-09-13 18:00:00+00:00,15.0,11.0,6.56,8.3,13.7,47.59359,-54.27349
2017-09-13 18:10:00+00:00,18.0,15.0,5.49,6.36,13.8,47.59359,-54.27349
2017-09-13 18:20:00+00:00,13.0,15.0,5.43,5.91,13.7,47.59359,-54.27349
2017-09-13 18:30:00+00:00,16.0,13.0,7.09,8.25,13.7,47.59359,-54.27349
2017-09-13 18:40:00+00:00,16.0,16.0,6.94,7.69,13.7,47.59359,-54.27349
2017-09-13 18:50:00+00:00,26.0,25.0,6.72,7.6,14.0,47.59359,-54.27349
2017-09-13 19:00:00+00:00,18.0,17.0,6.43,7.9,14.1,47.59359,-54.27349
2017-09-13 19:10:00+00:00,27.0,25.0,7.42,8.36,13.9,47.59359,-54.27349
2017-09-13 19:20:00+00:00,26.0,30.0,6.32,7.6,14.0,47.59359,-54.27349
2017-09-13 19:30:00+00:00,31.0,31.0,6.66,7.37,14.0,47.59359,-54.27349
2017-09-13 19:40:00+00:00,25.0,29.0,6.31,7.04,14.0,47.59359,-54.27349
2017-09-13 19:50:00+00:00,10.0,6.0,6.45,7.16,13.9,47.59359,-54.27349
2017-09-13 20:00:00+00:00,9.0,9.0,8.87,9.6,13.8,47.59359,-54.27349
2017-09-13 20:10:00+00:00,13.0,15.0,6.5,7.37,13.7,47.59359,-54.27349
2017-09-13 20:20:00+00:00,7.0,9.0,6.69,7.38,13.8,47.59359,-54.27349
2017-09-13 20:30:00+00:00,28.0,25.0,6.44,7.96,13.8,47.59359,-54.27349
2017-09-13 20:40:00+00:00,37.0,36.0,5.71,6.64,13.9,47.59359,-54.27349
2017-09-13 20:50:00+00:00,26.0,35.0,6.19,7.09,13.9,47.59359,-54.27349
2017-09-13 21:00:00+00:00,34.0,32.0,6.62,7.25,13.8,47.59359,-54.27349
2017-09-13 21:10:00+00:00,27.0,20.0,5.37,6.48,13.5,47.59359,-54.27349
2017-09-13 21:20:00+00:00,35.0,40.0,6.38,7.09,13.5,47.59359,-54.27349
2017-09-13 21:30:00+00:00,29.0,37.0,5.75,6.57,13.4,47.59359,-54.27349
2017-09-13 21:40:00+00:00,41.0,44.0,5.11,5.55,13.4,47.59359,-54.27349
2017-09-13 21:50:00+00:00,37.0,33.0,5.07,5.7,13.3,47.59359,-54.27349
2017-09-13 22:00:00+00:00,49.0,53.0,4.99,5.53,13.2,47.59359,-54.27349
2017-09-13 22:10:00+00:00,43.0,32.0,4.74,5.42,13.0,47.59359,-54.27349
2017-09-13 22:20:00+00:00,47.0,48.0,4.88,5.29,13.0,47.59359,-54.27349
2017-09-13 22:30:00+00:00,46.0,45.0,4.61,5.31,13.0,47.59359,-54.27349
2017-09-13 22:40:00+00:00,47.0,38.0,5.11,6.05,12.9,47.59359,-54.27349
2017-09-13 22:50:00+00:00,43.0,45.0,3.94,4.4,12.9,47.59359,-54.27349
2017-09-13 23:00:00+00:00,4.0,3.0,4.09,4.51,12.8,47.59359,-54.27349
2017-09-13 23:10:00+00:00,2.0,0.0,7.99,8.97,12.6,47.59359,-54.27349
2017-09-13 23:20:00+00:00,358.0,0.0,6.12,6.78,12.7,47.59359,-54.27349
2017-09-13 23:30:00+00:00,350.0,354.0,6.91,7.51,12.7,47.59359,-54.27349
2017-09-13 23:40:00+00:00,352.0,354.0,6.84,7.8,12.7,47.59359,-54.27349
2017-09-13 23:50:00+00:00,5.0,6.0,6.29,6.74,12.8,47.59359,-54.27349
